Theta_e
310 309 306 307 308 308 308 307 307 306 306 305 303 309 314 311 302 297 305 308 309 308 311 312 316 316 316 315 321 322 325 327 326 328 327 335 335 336 337 342 341 340 341 343 344 344 343 342 340 340 340 340 339 339 339 337 339 338 340 340 340 340 339 339 338 337 337 337 337 336 337 335 334 333 333 332 333 333 331 332 335 332 332 331 330 330 330
306 306 306 307 306 307 307 306 307 306 305 305 305 305 306 310 309 310 311 311 312 312 313 315 316 320 320 319 320 321 319 321 322 326 328 333 333 335 335 339 342 342 343 344 345 345 343 341 340 340 341 340 339 339 338 337 338 336 340 340 340 340 338 339 338 337 337 338 337 336 335 333 332 331 331 331 332 332 332 333 332 334 333 333 332 331 329
308 307 307 307 306 305 303 305 307 308 307 306 306 306 307 308 306 312 313 312 311 314 316 315 320 322 321 320 318 319 324 325 326 324 324 324 327 335 336 338 340 341 343 344 345 345 343 342 341 341 341 341 339 339 338 337 336 335 337 337 337 337 336 337 337 337 337 336 336 335 334 333 332 333 332 333 333 332 332 333 334 334 335 333 331 330 329
302 306 305 306 306 305 304 304 306 307 307 305 306 305 311 306 305 306 314 308 308 313 318 323 320 319 319 318 319 321 322 322 325 324 327 329 332 333 335 339 341 340 341 342 343 344 344 343 343 341 341 340 339 337 334 335 335 337 336 335 336 337 337 336 335 335 334 335 334 334 333 332 332 332 333 333 332 332 333 333 334 335 334 333 332 331 331
301 306 306 306 305 304 301 302 305 306 307 308 308 309 312 312 310 310 306 307 312 318 321 319 318 318 320 322 323 323 323 323 325 326 327 329 329 329 336 339 342 342 341 341 343 343 344 344 344 343 342 339 333 332 333 333 336 337 340 338 338 337 337 336 337 335 335 335 333 333 333 332 332 333 332 332 332 333 333 335 335 334 334 334 332 331 331
301 304 305 305 300 294 295 312 313 311 307 307 305 307 311 313 318 315 312 313 317 316 316 317 317 314 314 315 318 321 320 320 323 325 325 326 328 330 331 340 344 345 344 343 345 345 343 344 345 343 338 332 332 333 334 335 335 335 337 338 337 336 337 339 338 336 335 334 334 333 334 333 333 333 333 332 333 333 334 335 335 335 334 332 331 330 330
301 305 306 298 292 294 310 316 313 313 312 311 309 309 315 313 317 316 315 315 315 317 317 318 319 319 320 323 321 321 323 325 327 328 328 330 330 329 330 334 339 345 345 344 344 344 344 344 341 334 332 333 332 332 332 332 333 334 336 336 336 338 339 339 338 336 335 334 334 334 334 334 334 333 333 333 333 334 334 333 334 333 332 330 330 330 331
306 301 300 291 293 309 316 312 313 317 313 314 313 310 315 315 315 319 315 316 315 315 315 317 318 317 322 327 329 325 325 325 325 324 324 326 329 329 329 328 332 340 345 344 344 343 345 343 336 334 333 333 331 330 331 331 333 333 334 335 338 340 339 338 337 336 335 334 334 334 334 333 333 333 333 333 333 334 335 334 334 333 332 332 330 329 329
299 300 298 297 311 308 313 313 315 310 309 311 309 303 309 319 318 318 318 316 317 319 320 320 318 317 317 313 316 323 322 326 324 323 323 324 326 327 330 334 341 349 348 345 347 343 343 340 334 333 334 333 330 330 331 332 332 333 333 334 339 338 337 338 338 337 335 334 333 333 334 333 333 333 333 333 333 335 335 335 334 333 331 330 330 329 328
308 301 298 297 297 295 302 313 320 318 316 317 320 310 307 322 319 317 321 317 317 320 319 316 316 321 313 309 313 321 323 328 329 328 333 331 338 340 342 346 352 352 355 352 347 342 341 338 334 333 332 332 331 330 331 330 328 330 330 333 338 338 338 340 339 338 336 335 334 334 334 334 333 333 334 334 335 337 335 334 333 332 331 327 329 328 327
304 302 296 296 295 300 310 317 318 316 318 317 319 310 301 316 319 318 321 320 321 319 318 317 319 315 309 310 317 320 327 326 326 325 330 337 339 343 344 346 348 350 352 353 347 343 341 335 333 332 332 330 328 328 330 329 329 328 328 332 338 338 339 340 340 339 338 336 335 334 334 334 334 334 334 334 335 336 336 335 333 330 329 327 328 327 329
302 302 298 296 303 303 314 314 314 316 317 321 312 298 298 314 319 322 317 318 320 317 318 321 318 311 308 311 316 321 326 326 332 334 336 337 341 342 344 348 351 351 351 351 347 343 338 333 333 332 330 327 326 326 327 327 327 326 328 333 339 339 339 339 340 339 338 337 335 334 334 334 335 335 335 334 334 334 334 333 330 327 325 327 326 326 326
302 302 300 303 307 319 317 315 315 315 318 315 301 293 305 316 319 321 319 318 320 322 317 318 314 318 317 320 322 323 323 325 331 336 337 339 340 340 341 346 352 350 349 349 344 340 336 333 332 331 329 325 324 327 328 327 327 328 331 335 339 339 339 340 339 339 337 337 335 335 334 332 332 335 335 333 333 333 333 331 328 325 325 326 326 324 325
302 303 300 300 306 318 319 316 321 321 315 300 300 315 322 325 320 320 321 321 322 323 323 321 320 321 323 326 325 326 326 330 332 331 333 334 335 335 347 348 347 348 347 350 343 340 336 333 332 330 328 326 326 327 328 329 330 332 334 339 340 339 339 339 339 338 337 337 336 333 333 333 331 332 335 336 335 332 331 330 326 323 324 324 323 322 324
306 303 302 296 291 309 320 319 319 323 315 312 322 327 323 323 321 322 323 324 323 324 321 323 324 323 325 326 326 328 330 331 331 335 331 333 332 332 342 344 348 348 345 340 339 338 336 333 331 330 329 328 328 330 329 331 335 337 340 342 341 341 340 339 338 337 334 334 334 334 332 332 331 333 331 329 327 329 329 328 325 323 322 322 321 322 324
303 301 297 295 311 318 325 323 314 319 323 325 328 326 319 323 323 323 323 325 327 327 325 325 325 325 325 325 327 328 329 336 337 338 338 339 340 340 342 343 338 337 334 334 334 337 337 335 333 332 332 332 332 332 333 340 342 344 343 343 342 341 340 339 338 334 333 334 334 334 334 331 330 330 329 326 326 325 326 325 321 320 320 321 322 322 320
309 306 310 317 322 323 320 322 320 322 323 325 326 323 320 319 320 324 322 323 325 328 327 327 326 324 326 326 327 325 325 325 335 335 337 337 336 337 337 337 336 336 336 334 334 334 336 336 336 336 336 336 340 340 343 344 344 344 344 344 343 343 341 339 334 333 332 332 333 332 331 331 329 329 326 325 323 325 328 324 321 319 319 320 321 321 321
319 319 320 324 319 316 317 319 320 320 321 323 324 323 321 323 323 325 324 325 324 327 328 326 325 325 328 326 327 331 334 337 338 337 335 334 334 335 335 335 336 338 338 336 334 332 335 337 338 340 339 341 341 342 346 346 344 344 343 340 337 337 339 338 335 333 330 331 330 328 330 331 328 326 325 327 326 325 324 322 322 320 320 321 321 321 322
306 298 317 317 317 320 317 318 319 319 320 320 322 321 321 321 321 323 325 325 326 325 327 330 330 329 330 329 331 332 334 335 336 337 335 334 335 334 333 335 338 335 334 334 333 333 335 342 342 343 344 344 344 344 344 345 345 344 343 340 339 338 338 335 333 331 329 328 326 325 326 331 328 328 326 327 326 324 323 322 320 320 321 322 323 322 321
309 308 316 320 317 318 318 318 317 317 318 320 321 322 321 320 321 322 323 324 324 326 326 329 328 331 334 334 329 331 331 331 332 332 333 331 331 333 334 333 334 332 332 330 330 330 333 341 342 344 344 343 344 343 343 343 342 343 342 342 341 339 337 334 331 331 328 336 329 327 329 325 324 326 328 327 325 321 320 320 320 321 321 323 320 320 319
315 318 318 318 321 316 317 319 320 321 320 319 320 320 319 320 320 320 321 323 323 324 324 326 330 333 333 333 333 331 331 330 331 331 333 331 331 331 332 333 333 330 329 329 330 331 332 338 339 338 339 341 342 339 337 336 337 339 340 341 341 340 339 337 335 335 332 334 330 326 316 312 309 308 309 316 315 310 310 309 314 317 319 316 316 316 319
306 309 315 320 312 311 311 315 319 321 322 322 320 320 319 319 319 318 318 319 322 325 325 324 330 332 333 335 333 331 332 331 330 331 331 331 331 331 333 336 336 335 333 330 331 332 332 335 335 330 326 327 332 334 335 336 336 339 340 339 337 334 332 332 333 331 328 328 329 325 316 311 308 307 305 297 304 312 309 307 303 301 306 312 312 314 309
304 315 319 321 316 316 317 319 321 322 322 321 319 318 318 317 319 318 318 318 319 320 321 324 329 333 333 333 334 334 333 332 332 332 333 331 331 331 333 334 334 334 333 333 329 327 328 330 330 330 329 331 332 335 336 336 337 336 335 332 330 330 328 327 327 328 327 327 327 326 322 315 313 310 308 306 295 296 302 302 298 294 295 297 301 308 311
310 313 313 314 314 311 317 320 320 323 321 320 317 317 317 316 317 318 317 323 319 318 320 322 324 330 333 332 333 333 333 334 332 333 334 333 334 336 338 336 333 331 330 328 327 326 326 328 330 331 330 331 331 331 331 332 333 332 334 332 329 329 325 324 329 330 326 327 328 326 326 323 317 314 309 307 306 296 294 297 295 293 293 294 295 297 302
306 315 315 318 319 319 319 317 317 318 320 319 317 317 319 317 318 320 318 319 321 320 317 317 319 326 330 332 333 332 333 334 335 336 336 335 338 337 338 336 334 332 331 331 330 329 330 332 332 331 329 332 331 332 332 332 331 331 331 330 328 328 330 332 331 335 331 328 328 327 326 325 322 318 314 311 308 307 305 296 293 293 293 293 293 294 295
312 313 317 318 318 316 317 316 313 313 314 314 316 319 319 325 327 323 317 316 315 315 316 318 318 319 329 328 330 334 335 335 337 337 334 330 329 330 333 334 333 334 333 333 332 332 332 332 332 329 326 326 326 329 332 331 331 329 329 329 329 329 326 327 328 327 328 329 328 327 325 324 322 322 322 318 313 310 309 309 307 302 297 293 292 296 295
314 317 313 312 312 312 314 311 311 315 316 319 318 317 318 318 321 319 317 316 316 316 316 316 316 319 323 331 334 334 333 334 334 331 330 330 328 328 330 331 335 335 334 333 332 333 334 330 328 327 327 328 330 330 332 331 330 330 329 329 330 331 335 336 325 326 324 324 323 323 324 325 325 324 324 324 319 313 311 310 310 308 307 308 300 292 300
315 314 313 310 309 310 312 316 317 319 319 317 317 316 316 316 315 314 314 314 315 316 317 317 317 318 317 324 331 330 331 329 329 330 328 328 328 328 330 331 334 334 333 333 331 333 330 327 328 329 328 329 329 329 331 331 329 328 328 327 327 327 327 330 327 326 325 326 325 324 322 321 323 323 325 326 323 319 316 316 315 312 311 309 308 305 295
313 314 315 313 314 315 316 317 319 315 312 314 319 319 316 314 313 313 313 314 314 314 315 315 317 318 319 320 330 329 329 328 328 328 329 328 329 328 329 330 332 333 332 330 328 327 326 326 328 328 328 329 329 330 330 329 327 328 327 326 327 327 327 327 327 327 326 325 325 325 326 324 323 323 322 322 322 320 320 320 318 316 313 311 310 310 308
313 314 314 314 314 312 311 313 316 315 316 318 317 316 316 315 312 312 312 313 314 313 313 314 318 319 320 321 330 331 329 328 329 328 328 330 329 328 329 330 331 330 328 326 325 327 328 329 329 328 328 330 330 329 330 329 329 330 329 329 328 326 326 327 326 326 324 322 322 325 324 322 321 320 320 318 318 317 316 316 317 316 313 312 312 309 307
313 313 314 315 315 315 315 315 314 315 316 316 315 315 315 315 313 312 312 313 314 315 317 318 318 318 322 325 327 330 330 328 328 328 328 329 331 330 330 331 327 325 325 325 326 329 329 329 330 328 328 328 328 327 327 328 328 328 326 323 322 321 322 324 325 323 322 322 320 320 320 319 319 319 318 317 316 314 312 311 310 310 310 308 306 306 305
313 313 313 312 312 311 311 312 312 313 313 314 313 313 314 313 312 312 312 314 314 315 315 316 318 320 324 327 330 330 329 329 328 327 329 333 332 330 326 322 323 327 325 326 327 329 329 328 329 329 328 327 327 328 329 329 328 327 325 327 321 320 319 321 321 322 324 324 322 321 322 318 316 317 318 316 314 313 311 310 308 309 307 306 304 304 303
309 308 308 309 309 310 310 310 310 310 311 310 311 314 315 315 315 315 314 315 315 315 315 316 317 318 320 320 324 327 327 329 328 328 330 328 324 321 321 323 323 324 325 328 330 331 330 329 328 328 327 327 329 329 328 329 328 325 325 324 322 322 325 320 321 321 325 322 319 318 318 318 317 316 315 314 314 315 311 310 310 310 309 305 303 302 303
311 310 312 313 312 310 309 309 311 310 310 310 310 310 310 313 313 313 313 316 314 314 314 315 315 316 317 318 319 324 330 329 326 326 327 326 324 322 324 325 324 326 325 325 326 325 326 328 328 327 327 328 328 327 326 327 326 325 325 323 321 319 319 318 319 322 320 320 318 321 319 319 315 314 315 314 313 313 314 312 313 312 306 304 303 303 299
315 314 313 312 313 312 313 311 311 311 311 311 312 312 312 312 312 312 316 316 314 314 314 315 315 316 316 316 317 325 329 329 327 323 323 323 322 322 322 323 323 322 324 326 327 326 327 327 326 327 327 327 327 325 326 325 326 324 324 324 323 321 321 320 319 319 318 318 318 316 316 315 314 318 317 315 313 315 315 316 314 310 306 304 303 304 302
314 316 316 316 316 316 313 312 312 312 311 311 312 313 313 313 314 314 314 314 316 316 315 314 314 313 313 313 320 327 326 328 325 322 324 322 320 321 325 323 321 320 320 321 325 326 325 327 332 332 328 328 325 324 325 323 324 324 323 322 321 322 322 322 321 320 319 317 316 316 316 318 317 316 317 314 314 314 312 313 314 310 306 305 304 303 302
314 312 313 315 315 315 313 313 314 314 313 312 312 312 313 313 314 315 316 315 315 316 316 316 316 314 314 315 318 327 326 326 326 323 323 325 326 324 321 320 321 319 320 319 321 323 323 325 330 330 326 323 324 325 328 330 322 323 322 320 320 319 318 318 319 317 316 317 316 316 317 316 313 312 316 313 312 311 311 312 313 309 308 308 306 305 303
314 313 313 312 313 312 312 313 314 313 312 312 312 313 314 315 316 316 316 317 317 317 319 319 319 319 319 319 324 323 325 327 325 324 325 325 323 320 320 320 320 320 319 320 321 321 321 326 329 328 324 322 323 323 325 328 326 321 320 320 319 319 319 317 317 316 316 315 317 313 314 312 311 310 311 310 310 311 312 309 309 308 307 308 307 305 305
312 313 313 313 313 313 313 313 314 313 313 312 313 314 316 316 316 315 315 315 318 322 321 320 319 319 318 319 324 325 325 326 326 325 322 319 318 317 318 320 321 322 320 321 321 321 324 325 325 324 323 322 322 323 326 325 324 319 318 318 318 317 318 318 316 316 315 315 314 312 311 311 311 311 309 309 311 310 312 308 306 307 306 307 305 304 303
312 312 312 312 312 312 312 312 313 314 315 315 314 314 315 315 315 315 316 316 321 321 320 319 318 317 317 317 316 319 324 324 323 322 321 320 320 319 318 318 321 322 324 326 321 322 325 326 324 320 321 320 320 320 321 323 321 320 318 318 317 316 316 317 316 314 314 313 314 317 312 311 311 312 311 311 310 309 308 308 307 306 305 307 306 304 305
313 313 313 313 313 313 312 313 314 315 314 315 315 316 316 315 315 317 318 319 320 320 319 319 319 319 320 318 318 317 318 322 322 320 319 318 317 315 315 314 318 320 323 323 320 322 324 323 322 318 318 318 319 322 320 322 319 315 314 315 316 315 315 315 315 315 312 312 313 308 308 309 310 310 309 308 308 308 309 307 305 305 304 305 303 303 304
313 313 313 313 313 314 314 314 315 315 315 316 317 317 317 318 318 318 319 320 320 320 318 318 322 320 320 321 320 320 319 320 321 321 320 319 317 315 313 315 320 319 323 325 324 322 319 319 321 322 317 316 318 320 321 319 312 312 313 313 316 318 315 317 315 311 314 311 309 308 309 307 306 306 307 308 306 307 306 305 303 303 302 303 302 300 299
314 313 314 314 315 315 315 315 315 315 315 315 316 318 318 318 319 319 319 319 319 318 318 316 319 320 321 319 319 317 317 318 318 318 318 320 322 322 318 318 320 321 325 322 319 315 315 314 315 315 319 319 316 318 318 308 307 306 307 309 311 313 314 313 310 310 309 308 307 307 306 307 305 305 306 304 304 304 304 302 302 301 302 299 301 301 301
315 315 314 314 314 315 315 314 315 315 314 314 317 317 319 318 318 317 317 317 318 318 318 317 318 316 315 316 317 316 316 317 317 318 316 317 318 320 321 319 318 321 322 319 318 316 317 315 313 316 318 318 316 314 312 307 306 305 306 308 309 308 309 310 310 309 308 309 308 306 305 308 305 304 305 303 303 302 303 302 301 300 300 299 299 299 300
315 315 315 315 315 315 313 313 314 315 316 317 316 317 317 316 317 318 319 317 318 318 319 319 320 317 315 316 317 316 317 319 318 318 314 313 313 313 319 324 322 321 321 321 317 315 313 312 315 316 315 313 313 312 308 306 305 307 308 307 305 306 306 306 307 307 307 306 309 308 307 306 305 305 303 302 306 303 302 301 301 301 301 299 299 299 301
315 316 317 319 316 315 316 316 317 317 317 317 316 316 318 318 317 318 319 319 318 317 320 320 318 319 319 318 317 319 320 320 319 319 319 318 315 315 319 321 321 322 322 317 310 309 308 313 313 313 312 311 310 309 306 309 312 305 305 304 305 306 303 303 304 304 304 304 305 306 306 304 302 301 302 301 301 302 303 306 304 301 299 299 299 300 302
315 316 317 318 318 318 319 318 318 317 316 316 314 313 315 317 319 319 318 319 319 319 319 320 321 321 321 320 319 316 315 315 317 319 318 319 321 320 321 322 321 322 318 311 309 306 308 309 311 312 311 310 310 305 304 305 307 306 304 303 304 303 304 302 303 302 301 300 305 308 309 306 302 301 303 303 300 301 302 302 300 300 301 303 302 305 304
315 315 315 317 317 318 318 318 317 315 314 314 315 316 316 317 317 318 319 319 319 320 319 319 320 322 321 319 319 320 321 317 313 314 317 317 317 318 317 314 316 323 320 317 313 311 313 312 313 311 311 311 310 304 306 306 306 306 304 304 302 301 302 301 300 299 299 301 302 304 303 303 302 302 302 301 301 301 300 300 300 300 299 299 299 299 300
317 316 317 317 317 318 316 315 315 315 314 316 317 316 318 318 318 317 317 318 319 319 318 319 320 320 321 321 321 320 321 323 321 316 316 316 316 315 315 319 320 318 313 309 308 307 312 310 311 313 312 311 306 305 305 306 307 309 307 301 301 301 302 300 299 299 300 301 301 302 302 301 300 300 300 301 301 301 303 301 300 300 300 301 301 302 301
316 316 316 317 316 316 316 314 313 314 315 316 315 317 317 318 315 316 318 318 318 319 318 318 318 319 320 319 320 320 322 322 321 321 320 317 317 316 316 314 312 314 312 308 307 306 312 311 311 310 310 306 305 306 306 305 306 306 306 306 304 302 305 301 303 302 301 303 302 303 302 301 301 305 304 302 301 301 301 300 299 303 303 304 301 301 300
315 316 316 318 318 319 318 317 317 318 317 317 318 317 318 316 316 317 317 317 317 316 314 315 317 317 318 318 318 319 320 321 320 321 319 317 316 319 318 315 313 314 312 310 307 304 304 304 303 309 309 308 305 307 306 306 306 305 307 304 305 304 302 301 300 300 301 302 302 302 302 302 302 301 301 300 301 301 301 302 302 301 300 299 299 300 299
316 316 317 318 317 317 318 319 319 319 320 320 319 318 316 316 315 315 317 320 316 316 316 314 314 316 317 317 318 317 319 319 318 317 319 317 316 313 316 318 312 313 313 309 305 303 302 304 307 310 311 305 305 305 311 312 307 306 307 309 308 304 304 304 304 302 302 302 300 300 301 301 303 303 301 301 302 302 302 301 301 302 303 300 299 300 299
Wind_Speed
8 7 6 6 4 9 8 9 15 17 17 13 9 4 3 7 6 7 7 16 16 15 15 13 11 11 10 9 5 5 5 6 6 7 7 8 10 9 9 8 11 11 11 12 13 13 13 13 13 14 13 13 11 12 13 13 15 16 13 13 12 12 11 11 10 10 9 8 8 7 7 6 5 5 5 4 4 3 1 2 2 3 4 4 4 4 4
5 6 9 7 7 2 4 5 4 7 10 11 10 9 5 8 6 7 14 15 14 14 13 13 13 11 10 10 9 7 6 6 5 7 8 9 8 9 10 9 10 12 14 13 13 13 12 14 14 14 14 14 13 14 14 13 14 12 13 14 13 11 9 10 9 9 8 8 8 8 7 7 6 6 5 5 4 4 4 4 4 4 4 4 5 5 5
1 4 10 9 7 6 6 6 9 10 5 5 6 7 11 10 5 4 13 13 11 8 14 12 5 9 9 8 8 8 7 7 7 6 5 5 7 8 8 9 10 11 12 13 12 12 13 14 16 16 15 14 13 14 13 13 13 12 13 13 12 12 9 9 8 8 8 8 7 8 8 7 6 6 6 5 5 5 4 4 5 5 4 5 5 6 6
2 4 8 15 13 10 10 12 10 9 8 8 6 6 2 6 8 7 8 7 4 5 6 6 8 8 11 9 8 6 5 5 4 3 2 2 1 2 9 9 8 8 9 10 12 13 14 14 14 14 13 11 11 6 5 5 6 8 11 12 11 9 9 9 10 9 8 7 7 7 7 7 7 7 6 6 5 5 5 6 6 5 6 6 6 6 5
1 2 8 6 6 9 12 14 12 9 8 4 5 4 5 5 7 7 9 7 4 3 8 10 5 8 6 6 6 8 7 6 6 3 2 0 0 1 4 9 9 9 10 10 12 13 13 14 13 13 11 8 14 17 17 13 12 8 3 9 11 11 9 8 7 6 7 8 8 7 8 8 7 6 6 6 5 5 6 6 5 6 7 6 6 6 6
1 3 9 10 5 3 3 0 3 4 4 5 6 4 6 10 7 2 5 9 7 10 10 10 7 10 8 7 5 7 7 5 2 2 2 2 2 1 2 4 10 11 10 9 11 13 14 15 14 7 15 17 18 18 18 17 17 18 15 10 11 10 9 7 8 10 9 9 9 9 8 8 7 7 6 7 6 6 6 5 6 6 6 6 6 6 5
1 4 7 5 6 4 1 2 7 6 8 7 5 6 4 11 9 11 13 7 7 5 7 10 9 8 7 8 8 5 4 4 5 4 4 4 4 4 4 3 5 8 10 10 6 7 11 10 12 17 15 15 16 15 16 17 14 10 7 6 7 8 9 9 11 11 10 10 10 9 8 7 7 7 7 6 6 6 6 6 6 7 7 6 6 5 4
2 1 1 1 2 3 3 5 4 5 5 5 6 5 5 6 5 4 6 8 12 10 8 5 5 6 5 5 5 6 4 5 5 6 5 4 5 5 6 6 6 6 10 10 10 10 7 13 12 13 14 16 17 16 14 12 7 10 10 6 7 9 11 11 11 11 11 10 10 7 6 5 6 7 6 6 6 6 6 6 6 5 5 5 5 4 4
3 1 2 5 3 7 2 1 1 2 1 2 3 2 2 1 1 4 3 7 7 5 5 6 8 8 8 6 3 3 2 4 5 7 5 6 6 7 7 6 5 4 8 9 10 9 10 12 13 12 12 11 12 11 9 9 9 6 1 9 10 12 13 13 12 10 9 9 7 6 6 6 6 6 6 6 6 5 6 7 6 6 5 5 4 3 2
3 3 2 2 1 5 1 3 2 2 2 2 1 1 2 2 4 4 3 5 6 9 10 10 8 6 9 5 2 3 3 4 4 5 2 1 3 4 4 2 2 3 4 7 12 13 12 12 13 12 12 14 15 13 12 13 13 11 9 11 10 11 11 11 11 9 8 8 8 7 7 8 7 6 6 6 7 6 7 6 5 6 4 4 12 12 10
0 1 1 1 1 1 1 2 5 4 1 3 5 4 4 4 6 6 8 4 3 6 6 5 7 7 5 1 1 4 0 1 4 4 4 6 4 4 5 4 3 3 4 9 12 12 13 14 13 14 15 17 15 13 13 14 13 13 14 13 11 11 11 11 10 9 9 8 8 8 8 8 8 7 7 7 6 5 6 5 4 2 8 6 4 3 3
5 3 2 4 2 2 2 6 6 10 3 2 3 2 3 6 6 4 8 8 4 5 7 7 7 9 4 3 3 2 1 4 7 5 6 6 5 5 4 5 4 4 4 9 11 13 13 14 16 16 17 18 18 14 13 11 12 14 15 12 10 11 10 8 8 8 8 8 6 7 8 5 4 4 4 4 4 3 2 1 4 6 3 3 3 4 3
7 9 3 1 2 1 5 3 5 6 4 6 3 4 3 5 7 10 9 9 8 4 6 5 6 1 3 3 3 6 8 7 4 6 6 6 7 6 4 5 6 5 4 7 12 13 13 16 15 15 14 15 14 14 13 13 15 16 14 10 7 7 7 7 7 7 7 8 6 3 6 8 7 8 5 1 2 2 2 5 4 2 1 1 2 2 1
1 1 4 4 2 2 7 4 9 6 7 3 2 4 3 4 4 11 11 12 8 7 8 7 5 4 7 6 7 8 7 3 3 2 4 4 4 5 4 7 6 4 4 8 12 12 15 17 16 15 15 14 13 12 11 14 16 13 9 8 7 7 7 8 8 8 6 6 7 7 7 7 8 6 1 5 6 8 7 4 2 1 1 2 1 1 4
3 2 1 3 3 5 6 5 6 5 3 4 4 2 4 4 5 10 10 10 9 8 5 5 7 8 10 8 8 5 5 4 3 2 4 4 4 4 4 4 4 6 8 12 5 10 14 15 15 14 14 13 11 10 12 13 10 10 11 10 9 9 8 8 6 5 7 7 6 5 5 4 3 4 8 7 5 3 4 2 0 1 1 0 1 1 2
4 1 1 2 3 5 2 5 5 2 1 3 1 2 4 6 6 6 7 9 8 8 9 10 9 8 7 8 7 6 5 2 3 3 3 6 5 5 5 6 6 10 13 13 4 9 8 13 13 12 12 12 11 11 12 10 11 9 10 9 8 6 6 5 7 6 5 7 5 5 5 6 6 5 4 2 2 2 2 2 1 2 2 1 2 3 3
1 3 1 3 5 1 5 8 8 5 6 7 5 8 6 6 7 6 9 9 9 8 8 7 7 7 7 5 5 5 6 5 2 4 1 3 4 4 4 6 7 8 11 13 8 7 11 11 11 12 12 11 10 10 6 7 8 8 7 7 6 5 5 7 8 7 6 6 7 7 7 7 5 5 2 1 0 6 6 3 2 2 2 2 4 4 3
7 4 9 8 12 12 9 8 7 9 8 8 9 8 8 6 6 9 9 7 8 7 6 5 3 4 3 5 6 7 7 6 5 5 7 7 7 8 7 6 7 8 8 11 10 5 14 12 12 10 10 11 11 8 6 7 8 8 8 7 7 6 7 7 8 7 7 6 6 6 6 5 6 6 5 5 5 4 3 2 1 1 3 3 2 2 3
7 4 9 9 10 14 6 9 10 9 9 8 7 8 7 7 8 9 9 6 5 6 8 7 3 4 4 3 4 4 6 6 5 5 5 5 4 5 7 5 7 6 8 10 9 2 14 5 8 9 9 9 10 9 8 7 7 6 6 6 5 6 7 7 7 8 8 7 6 4 4 5 4 4 5 5 4 3 2 2 2 1 1 1 3 4 5
5 7 7 5 1 5 4 6 6 7 7 8 8 8 6 7 7 7 7 6 7 7 8 6 4 5 5 4 3 4 4 4 3 3 3 4 6 5 6 4 7 8 11 11 9 2 13 4 8 9 10 9 9 8 8 8 7 7 7 7 7 6 8 7 7 7 7 9 7 4 3 2 2 2 3 3 4 2 1 1 2 2 0 1 1 2 5
3 4 4 7 9 3 5 6 6 6 5 7 7 8 8 8 9 8 7 7 6 6 5 6 4 5 4 5 3 2 3 3 3 3 4 3 4 5 6 5 7 7 4 7 9 6 14 6 9 10 8 9 9 9 8 7 7 7 7 6 6 6 6 6 6 6 5 6 6 7 7 6 5 4 3 4 5 4 2 2 0 2 2 2 0 2 2
4 4 4 2 5 5 3 4 5 4 5 5 7 6 7 8 8 9 8 8 7 7 5 5 3 4 3 3 4 4 2 2 3 3 3 4 5 5 5 7 8 8 9 5 3 4 5 10 3 7 8 8 7 6 6 6 7 7 6 6 5 4 4 4 6 7 6 6 7 8 7 7 7 6 9 7 5 4 3 4 6 5 4 2 1 1 5
6 5 5 7 14 8 0 2 4 5 4 4 7 6 5 5 4 5 4 4 5 6 7 6 2 2 1 1 2 4 2 2 3 3 4 5 5 4 4 6 7 8 9 10 11 11 7 11 12 10 5 8 8 7 7 7 8 7 7 6 5 3 4 6 7 6 6 6 6 8 8 8 7 8 5 8 12 12 8 5 5 7 7 5 6 7 6
10 7 5 4 3 3 0 3 6 6 6 6 7 6 5 5 5 4 5 3 4 5 6 6 6 3 4 4 2 5 4 3 3 4 1 2 5 7 6 7 9 10 10 11 11 12 12 10 10 6 6 4 5 7 6 6 6 6 5 5 6 5 7 5 6 5 6 5 6 7 7 7 8 8 8 7 5 6 5 5 4 5 7 9 9 9 8
5 3 3 2 2 0 1 4 8 5 6 7 5 5 5 5 5 4 4 4 4 5 6 8 8 5 4 3 5 7 6 4 3 3 3 3 2 4 9 11 10 11 11 10 10 11 11 11 7 5 7 4 5 6 5 5 5 5 5 4 4 3 4 5 5 5 6 6 6 6 7 7 7 7 8 8 8 6 3 2 3 5 7 6 7 8 10
5 3 1 0 0 5 6 6 8 7 6 6 4 4 5 5 4 5 5 5 6 7 7 6 5 6 2 5 4 7 5 7 5 5 3 4 5 5 7 9 8 6 5 7 9 9 9 6 6 7 6 4 5 5 6 6 6 6 5 4 3 5 5 5 5 6 6 6 6 6 6 6 6 6 6 7 7 8 7 4 3 3 4 4 4 6 7
4 1 2 1 4 8 6 6 2 3 3 3 3 4 5 5 6 6 7 7 6 6 6 6 5 5 8 3 2 6 8 8 6 5 4 4 4 5 6 5 6 7 9 8 8 9 8 8 8 7 6 4 4 5 5 6 6 5 5 4 3 3 7 6 4 4 5 6 6 6 7 6 6 6 6 6 7 7 7 7 6 5 4 1 1 1 1
2 3 5 6 4 4 3 2 2 2 3 4 4 5 5 6 7 8 9 8 7 8 8 8 7 8 8 6 1 3 6 7 7 6 5 6 5 6 5 5 4 5 6 6 5 5 6 6 6 6 6 5 5 6 6 5 6 5 4 3 4 6 4 6 6 5 5 5 5 5 5 6 5 4 4 5 6 7 7 7 7 7 5 5 3 4 5
7 6 7 6 4 3 4 4 5 7 7 5 5 5 7 8 8 7 7 7 7 8 8 9 8 7 5 8 2 4 5 4 6 7 7 5 6 7 6 5 4 5 5 6 6 7 7 6 6 7 6 5 5 6 7 6 5 4 3 3 6 5 4 4 5 5 5 5 4 5 5 4 4 3 4 6 5 5 5 5 6 7 7 5 4 3 1
7 6 6 5 6 8 8 8 6 5 5 5 7 6 6 5 5 5 7 8 8 8 8 8 5 7 7 6 2 6 6 6 7 6 5 5 6 7 7 6 3 4 5 5 5 5 6 5 7 7 5 3 3 5 6 6 5 5 6 6 5 5 4 4 4 5 5 5 4 5 5 5 5 6 6 6 6 6 6 6 6 5 6 5 4 4 2
8 8 11 11 12 9 8 8 8 7 7 7 6 6 4 4 5 6 6 7 7 6 5 6 6 7 5 7 5 3 4 4 4 4 4 4 4 7 7 4 2 2 2 3 3 5 5 6 7 7 5 2 1 3 4 6 7 7 7 6 5 7 8 7 5 4 4 4 3 5 5 5 5 6 6 6 7 6 6 6 7 6 5 5 5 4 2
10 11 13 10 8 8 8 7 6 6 6 6 6 5 5 5 5 6 6 4 5 8 8 8 7 7 5 5 7 6 2 2 4 4 3 1 4 7 10 12 10 8 6 4 5 6 2 6 6 4 4 4 3 4 5 7 6 7 7 6 6 5 4 4 3 3 3 3 3 5 6 6 4 4 6 6 7 7 6 6 6 6 6 6 5 4 3
9 9 8 7 7 7 7 6 6 7 6 7 6 6 6 6 5 4 6 6 7 7 8 9 8 8 8 8 4 4 3 2 3 3 4 5 5 6 6 8 8 7 5 2 3 4 3 6 6 4 5 5 4 4 6 6 5 6 6 7 6 5 4 3 3 5 4 4 4 5 5 5 4 3 6 6 6 7 6 6 6 6 6 5 5 4 3
4 3 1 2 3 3 4 5 5 5 6 6 6 7 7 6 6 8 7 5 6 8 7 8 10 11 10 9 7 5 1 2 2 3 4 4 3 4 5 7 7 8 10 11 12 12 11 4 4 4 4 3 2 4 7 7 6 6 5 7 7 6 5 4 1 2 4 4 4 4 4 4 4 5 4 3 5 6 6 6 6 7 6 5 4 3 3
3 4 4 4 3 4 4 5 5 6 7 7 8 8 7 7 6 6 7 7 6 6 6 8 9 9 10 10 10 4 5 4 4 3 3 6 7 8 8 5 3 5 5 4 7 6 4 1 5 5 3 1 2 2 5 5 6 6 4 5 6 5 5 4 3 4 6 6 4 5 4 5 5 5 3 3 3 2 2 3 6 8 8 7 5 3 3
2 1 1 1 1 1 3 4 5 6 6 6 6 8 8 8 7 7 6 5 6 8 8 8 8 9 10 10 8 6 7 6 7 7 6 6 5 4 5 6 5 5 4 2 3 5 4 5 8 8 4 5 6 7 5 3 5 6 4 5 3 3 3 3 3 5 5 6 4 3 2 5 6 4 3 3 3 3 3 4 5 8 8 7 6 5 5
4 4 3 3 2 3 4 4 3 4 4 5 7 8 9 9 9 7 8 9 8 7 8 8 8 9 10 11 8 6 7 6 7 7 6 6 6 6 6 5 5 5 5 5 4 5 5 5 6 9 7 5 6 6 6 10 6 5 4 3 5 5 4 5 5 5 4 3 3 3 3 4 4 3 3 4 4 4 3 2 7 7 8 7 7 6 6
8 9 7 6 6 6 5 5 5 6 8 8 7 7 6 5 7 8 9 9 10 10 9 10 11 12 12 11 5 3 6 7 8 7 6 6 7 8 5 5 5 5 4 3 3 6 5 6 9 6 4 5 4 4 6 9 7 4 2 2 3 5 3 4 4 3 4 4 3 3 5 5 4 3 5 5 4 3 3 3 5 8 6 7 7 7 7
8 7 6 7 7 6 6 7 6 5 7 8 8 7 7 9 10 10 9 10 9 8 9 9 10 10 9 13 4 4 8 8 8 8 7 8 7 8 7 5 4 5 5 3 5 6 6 6 3 5 5 4 5 5 5 6 6 4 3 4 3 5 5 5 5 5 4 4 5 4 4 5 5 5 5 3 2 5 5 5 6 4 6 8 8 7 7
8 8 8 9 8 7 7 7 8 7 8 8 9 8 7 8 9 9 9 7 3 5 7 8 7 7 5 6 12 14 2 8 8 9 9 8 8 8 7 6 4 5 5 8 5 4 5 8 7 6 6 5 5 5 3 2 3 1 0 1 3 5 5 5 5 5 5 5 6 7 5 4 3 3 4 3 4 5 5 5 5 5 2 3 6 5 4
10 10 9 9 9 8 8 7 6 6 7 7 7 6 6 7 7 7 7 7 7 7 5 3 5 4 4 4 3 3 11 5 8 8 9 9 8 7 7 6 2 5 4 3 5 4 3 5 6 6 5 5 5 4 1 2 1 1 2 3 6 4 6 6 5 5 5 6 5 6 5 4 3 3 4 5 5 5 4 5 5 4 4 3 5 6 5
10 9 10 9 7 7 7 7 6 5 4 5 5 5 7 8 8 7 7 7 4 3 2 2 5 4 4 3 3 2 3 5 4 6 6 6 6 6 6 4 4 5 6 7 7 6 6 5 5 5 4 3 2 2 4 2 3 3 2 4 2 1 1 2 2 3 4 5 6 7 5 4 4 4 4 4 3 3 4 5 6 5 3 5 6 5 4
7 8 7 7 6 6 7 6 6 6 6 5 5 5 6 6 4 4 5 4 3 2 0 1 2 4 5 3 4 5 3 1 6 7 8 5 2 3 5 5 5 6 12 7 6 6 6 5 5 3 6 5 3 5 7 6 5 5 5 5 6 6 3 3 4 4 4 4 4 5 6 6 6 5 4 5 5 6 6 6 7 6 5 5 5 3 2
7 7 6 6 5 5 6 6 5 5 4 4 3 3 2 2 2 3 3 3 2 2 1 1 3 4 5 6 7 5 3 4 4 4 5 4 5 5 5 6 4 8 12 7 7 7 7 6 5 7 11 10 9 8 4 3 3 4 4 5 5 5 6 6 3 2 1 2 5 5 4 3 5 7 6 4 4 4 5 6 6 7 6 6 4 3 1
5 4 5 5 5 4 4 4 5 5 4 3 3 3 2 3 3 3 3 2 2 2 2 2 0 2 3 2 2 3 3 3 3 2 3 5 5 2 1 6 6 5 6 7 5 6 7 6 7 11 8 8 6 6 2 2 1 1 2 3 5 6 5 4 4 4 6 8 5 4 4 3 2 2 4 3 3 6 6 6 6 6 7 7 5 4 1
6 6 5 6 6 4 4 5 4 3 3 3 2 3 2 2 3 3 3 3 2 2 4 3 3 2 1 2 3 3 2 3 2 2 1 2 5 5 4 5 4 4 8 11 5 6 5 9 9 7 6 5 5 3 1 0 0 0 2 4 4 4 5 6 4 5 4 6 7 4 2 4 6 5 6 5 4 3 4 4 4 4 5 5 5 6 8
4 4 4 3 3 3 4 3 3 4 4 2 2 2 3 3 3 3 2 3 3 3 2 3 2 4 3 2 2 4 3 3 2 1 3 5 7 7 5 6 4 6 7 6 6 6 5 5 5 6 6 6 7 3 2 3 2 2 4 3 2 2 2 3 5 5 6 6 7 2 3 3 5 7 5 4 5 7 5 4 3 3 3 4 5 4 6
3 3 3 3 3 3 3 3 3 3 3 4 3 1 2 3 2 2 2 2 1 1 2 2 2 3 3 2 3 2 1 1 2 2 2 5 5 5 5 4 3 7 9 9 9 7 10 9 7 7 7 7 4 2 1 2 1 2 3 3 2 1 1 1 4 5 5 4 7 7 1 3 4 6 5 6 5 4 4 6 6 4 6 6 5 7 7
3 2 3 1 2 2 2 2 2 2 3 3 3 2 3 3 2 2 2 2 2 2 2 2 3 3 2 3 2 2 3 2 3 1 3 5 4 5 4 6 7 8 8 6 5 4 7 8 7 6 6 6 2 1 1 0 2 3 1 5 6 5 4 5 2 2 2 2 4 5 2 3 4 4 5 4 3 2 3 5 4 3 4 4 5 5 6
4 3 3 2 2 3 2 1 2 1 2 1 2 3 2 1 2 2 2 3 3 2 2 2 2 2 2 2 1 1 1 1 1 2 2 4 4 3 4 6 6 9 10 7 5 6 7 9 7 6 4 2 2 3 3 2 1 1 2 2 1 1 3 3 4 4 1 0 1 2 1 2 3 3 3 3 3 4 2 0 2 6 10 6 4 4 5
5 5 5 4 4 3 2 2 2 2 1 1 3 2 2 2 2 3 2 2 1 2 2 2 2 1 1 1 1 1 1 2 1 3 1 3 3 4 5 6 7 7 7 7 6 7 6 5 5 4 4 4 3 1 1 0 1 3 3 1 1 3 5 5 3 3 3 2 2 2 1 2 1 1 2 2 2 1 1 3 2 2 3 4 5 5 6
7 6 6 5 5 4 3 3 2 2 1 2 4 4 2 1 2 2 3 4 2 2 1 1 4 3 1 1 2 2 1 1 1 1 2 2 3 3 6 8 6 6 6 7 7 6 6 6 6 7 7 4 3 2 2 3 3 2 3 2 2 0 1 2 2 2 3 3 2 1 1 1 0 1 1 1 1 2 3 2 5 4 3 3 3 3 3
Wind_Direction
209 211 230 223 212 224 227 206 196 202 225 239 236 169 178 147 157 199 212 172 168 186 187 184 178 171 180 167 133 133 161 148 138 147 161 172 176 177 175 179 180 179 180 190 192 189 187 181 180 185 188 188 181 180 177 171 170 175 167 162 161 167 172 170 179 187 192 198 193 193 197 188 183 185 188 193 199 186 192 240 239 247 260 259 267 283 281
205 239 253 254 256 215 256 301 278 210 206 222 233 241 224 170 180 202 174 188 179 180 188 183 187 176 148 140 140 139 139 153 154 140 153 166 182 183 188 186 187 188 186 186 188 184 181 181 184 188 191 187 182 182 180 174 172 165 155 156 161 169 169 173 177 183 191 197 192 192 193 193 190 190 194 201 201 204 205 209 218 222 241 262 262 253 259
337 282 266 262 248 261 277 279 278 272 251 256 233 227 234 246 243 170 167 189 209 217 178 180 156 138 134 130 138 147 144 138 135 134 148 158 169 196 208 203 194 192 191 187 181 179 181 183 187 192 191 184 180 181 175 171 162 154 146 150 157 166 158 156 160 185 192 192 184 187 191 187 187 190 197 195 196 199 206 214 215 219 222 237 250 261 255
317 306 265 223 226 246 256 256 241 240 243 236 245 257 212 213 221 216 141 183 175 178 169 119 127 119 122 129 140 141 138 122 114 115 105 96 111 156 201 212 210 198 190 184 183 185 184 185 189 192 187 177 173 148 119 101 106 115 133 144 149 151 161 163 174 184 180 187 184 189 184 190 190 194 191 192 195 198 207 223 227 222 227 232 240 242 240
265 280 300 293 227 210 224 237 247 266 279 314 341 317 288 265 234 155 165 185 189 163 123 117 132 120 113 106 97 92 98 107 115 122 123 176 229 248 174 193 200 207 202 194 188 189 185 187 191 188 171 112 68 61 57 56 69 76 135 159 154 160 166 179 181 181 194 193 193 191 196 194 192 190 192 197 202 204 217 223 224 225 229 233 236 233 230
138 265 278 289 307 247 228 221 55 46 353 16 350 1 2 13 350 202 142 133 130 108 92 106 115 102 123 131 151 144 138 127 126 143 177 192 208 288 294 184 196 199 205 203 198 190 186 189 186 135 100 111 122 126 135 147 155 169 176 162 155 163 172 179 172 203 201 197 198 202 200 195 192 193 193 205 207 208 217 224 226 229 229 229 231 227 222
161 11 30 7 264 246 251 13 28 25 26 11 340 333 30 49 45 70 75 58 66 80 109 125 139 147 152 136 138 135 132 133 150 173 182 190 184 205 225 245 199 202 200 202 178 156 178 169 112 113 129 127 131 139 148 159 165 145 102 127 188 176 176 189 196 196 196 199 204 205 201 195 192 194 199 206 210 214 214 220 220 219 223 231 236 232 226
54 30 68 155 238 255 325 346 339 16 29 36 22 351 37 53 69 96 102 127 123 121 124 134 137 131 114 84 92 120 144 143 162 162 185 202 202 209 212 219 233 192 202 197 172 174 135 112 127 129 137 144 143 150 156 149 136 134 140 182 202 181 180 200 206 199 197 201 206 203 195 191 191 199 201 203 213 218 225 231 229 221 221 213 218 221 218
178 159 160 220 335 320 33 29 8 62 274 67 90 355 288 45 107 93 148 139 133 128 117 91 74 82 71 63 4 342 328 251 200 180 186 196 207 213 214 195 212 209 193 186 160 141 135 129 127 131 132 128 116 108 89 61 53 65 222 224 212 190 197 200 201 200 197 199 201 194 188 188 197 199 201 212 222 219 225 228 231 230 234 231 227 230 262
3 86 12 352 323 259 303 237 204 214 249 328 136 86 305 348 40 90 133 133 124 118 110 108 107 76 61 48 360 343 3 100 113 108 111 72 93 124 123 102 95 90 102 132 142 144 140 128 119 122 120 125 127 118 132 140 154 180 218 244 225 209 203 200 201 194 192 193 194 192 187 195 199 202 205 212 219 214 216 224 233 228 235 14 22 15 30
269 208 232 209 250 261 297 292 310 222 113 72 65 20 311 312 6 29 80 45 72 110 110 114 87 74 82 113 72 303 49 75 138 140 82 56 86 97 107 108 105 77 93 130 143 140 138 123 130 131 128 113 112 165 173 168 174 189 206 226 215 209 207 201 194 187 189 189 190 190 195 201 197 201 209 214 221 207 210 214 221 46 48 89 139 203 200
168 149 214 253 199 245 292 12 3 358 311 112 86 304 283 293 330 340 55 65 73 102 115 111 89 109 125 168 180 270 75 30 60 98 106 101 96 96 86 87 110 116 99 106 132 141 134 134 140 138 137 147 163 170 176 177 188 203 214 223 214 208 201 189 182 185 185 187 186 192 203 204 207 218 223 223 229 236 244 157 78 80 104 123 160 230 237
169 170 226 226 301 350 324 360 4 11 11 70 122 201 250 294 344 37 60 56 64 51 72 76 94 88 134 163 117 51 31 41 104 130 148 147 142 142 144 131 125 104 120 122 146 141 137 142 147 147 145 148 167 179 177 185 203 211 215 221 207 190 177 172 178 183 183 182 179 128 65 53 22 313 276 116 35 0 39 51 72 106 174 175 121 148 209
270 298 194 210 112 279 300 314 36 30 16 287 196 224 226 282 354 60 59 48 33 56 64 62 67 72 53 41 40 32 25 29 195 97 106 105 94 78 90 135 126 116 114 113 137 137 146 152 150 152 155 166 176 176 179 197 209 209 214 209 190 177 177 183 186 184 156 104 109 136 144 147 179 218 238 85 75 64 45 42 53 35 1 68 93 192 195
340 101 216 6 288 278 312 338 358 17 121 220 219 319 346 15 51 62 52 51 31 40 55 58 50 39 38 32 18 23 41 85 82 96 114 88 81 80 86 74 60 80 60 44 48 150 155 151 155 163 163 167 171 176 191 205 203 204 205 195 190 186 183 187 179 129 123 141 129 127 142 130 108 55 27 24 32 64 109 141 137 358 332 269 240 227 211
134 108 107 199 213 259 343 94 119 299 147 183 339 5 23 347 40 71 62 46 41 37 37 26 29 34 38 26 17 13 25 56 87 89 105 104 96 89 98 101 83 89 92 102 88 305 202 164 160 161 164 169 174 180 197 200 189 179 175 178 171 168 173 157 106 108 102 93 96 104 106 101 109 127 136 155 99 350 284 174 179 252 258 250 244 224 223
77 187 149 335 302 256 78 87 111 98 60 63 91 70 29 27 16 29 51 36 31 29 40 34 27 19 7 10 5 13 345 7 291 200 165 109 127 121 103 73 77 80 102 109 96 286 250 175 158 163 173 165 165 158 172 132 117 115 112 112 112 114 115 111 110 116 121 117 113 107 118 130 133 142 120 68 171 204 195 168 183 229 255 241 245 229 206
329 45 55 17 356 6 48 59 65 71 62 53 55 67 72 16 35 44 43 18 18 9 27 29 25 5 1 345 10 22 25 13 16 75 71 71 72 71 67 60 66 90 97 98 104 256 248 178 159 156 150 143 133 148 143 121 122 120 120 117 120 120 110 111 122 126 114 120 126 138 136 135 144 160 172 183 185 182 162 192 207 236 272 258 235 216 217
50 336 329 39 29 325 331 58 57 56 59 52 51 56 53 47 37 45 48 29 21 23 17 9 21 19 351 25 58 66 49 48 52 62 69 70 77 93 99 120 116 104 104 108 112 237 269 198 139 129 124 125 130 134 130 129 125 123 115 124 124 121 120 122 126 131 137 151 162 147 128 141 147 178 189 177 170 161 161 169 164 178 246 289 281 227 205
136 165 251 314 168 224 29 41 46 51 46 46 45 49 42 42 37 43 44 29 33 20 18 5 31 29 28 30 45 86 93 101 83 81 78 87 89 89 100 99 111 126 132 128 113 88 272 221 128 123 127 134 138 137 136 137 134 130 132 132 139 144 145 146 148 154 161 167 154 139 123 97 66 71 99 132 131 110 118 134 162 184 235 327 231 198 190
141 89 5 356 324 359 42 44 54 45 53 59 46 44 37 31 37 27 28 38 23 17 7 1 35 59 12 356 336 112 109 102 119 132 142 131 115 123 104 96 93 90 82 111 120 118 278 245 135 130 136 144 144 147 147 136 134 130 133 132 134 147 149 151 158 154 150 150 150 130 105 86 60 41 8 32 96 95 17 321 338 97 114 117 39 4 117
120 164 198 97 54 315 342 22 52 54 42 67 68 54 43 30 31 26 15 13 356 357 354 357 38 81 34 2 54 80 97 140 151 158 144 154 136 131 136 127 122 119 123 124 109 112 278 301 93 111 100 98 98 94 104 123 129 128 135 139 139 140 147 140 127 138 143 141 134 133 127 125 116 79 57 49 33 122 124 36 38 40 82 128 226 135 103
194 181 165 148 160 194 245 26 31 60 48 55 75 64 50 30 29 49 18 5 345 340 327 311 340 146 131 60 147 141 161 178 190 202 173 151 128 110 107 105 111 113 102 97 89 68 21 337 3 23 30 91 106 108 103 112 123 131 131 133 132 123 102 108 136 140 145 143 149 135 142 143 131 122 100 43 37 39 55 57 41 55 70 75 73 89 118
80 86 89 94 122 135 254 8 41 43 26 38 43 44 43 22 356 21 355 350 339 308 308 305 296 240 168 180 141 138 152 157 164 189 179 132 146 147 146 128 129 121 127 137 142 147 156 182 206 184 122 109 124 112 110 109 111 118 123 125 132 124 125 144 148 152 162 157 153 143 142 145 141 141 128 116 73 39 45 61 55 68 67 61 65 79 95
118 130 121 115 131 49 332 75 63 40 36 35 35 26 12 351 331 350 321 318 302 296 295 296 298 277 188 177 160 159 164 167 162 157 179 213 161 118 125 131 143 158 163 164 159 165 173 193 178 138 113 111 111 112 108 104 105 108 116 119 126 151 134 143 158 160 152 158 172 169 154 154 156 153 147 145 134 128 110 93 87 68 57 51 58 60 57
75 42 359 306 107 56 27 55 38 26 32 360 2 7 343 323 326 338 322 303 298 292 285 283 294 316 256 203 181 153 147 146 166 172 162 110 101 101 128 146 160 154 158 158 160 167 174 166 147 130 120 121 117 125 120 119 117 116 114 117 131 124 123 150 149 161 158 157 135 123 119 132 148 156 158 153 148 142 140 136 102 46 44 31 56 61 54
83 85 352 357 66 64 41 62 48 2 345 3 15 332 320 348 330 306 284 283 282 292 314 314 320 340 346 291 121 143 142 156 148 152 145 145 146 158 166 167 176 169 166 169 172 170 152 133 131 134 135 133 118 112 121 119 114 107 109 106 108 157 153 133 112 99 99 114 124 125 129 140 152 168 163 152 147 148 150 152 157 152 157 190 314 102 108
83 61 56 77 64 42 8 20 2 347 21 24 14 359 347 339 346 351 346 347 353 352 350 344 356 348 344 311 126 117 128 143 152 167 171 189 172 177 181 177 177 162 156 156 151 137 127 131 123 117 126 129 126 126 126 116 109 106 104 110 94 85 91 103 105 107 109 108 117 125 130 136 140 135 147 147 147 155 158 159 158 155 152 173 181 212 203
69 68 64 57 37 23 347 356 20 27 7 356 8 11 13 359 351 339 340 341 343 347 333 331 325 330 337 322 171 153 152 154 163 184 200 188 159 180 178 184 196 160 142 139 138 139 138 140 126 123 130 144 147 136 132 121 117 122 133 116 112 118 103 98 109 116 117 116 119 133 134 140 143 139 110 113 122 124 134 141 144 149 148 147 131 112 168
58 51 56 46 25 25 11 13 10 14 10 9 18 6 354 338 330 342 340 327 325 314 305 302 318 322 331 327 195 171 172 177 190 196 198 188 178 182 173 182 168 140 133 128 138 137 136 132 127 127 129 142 129 132 137 135 124 105 91 91 99 110 119 113 107 110 122 121 132 125 114 115 115 118 121 120 115 117 118 120 123 113 120 134 126 114 104
46 40 42 34 25 19 33 27 1 359 1 356 355 336 316 350 349 325 307 296 298 298 314 322 322 321 320 316 302 255 206 182 178 184 193 204 197 178 174 164 141 141 160 146 147 150 148 130 134 136 148 100 35 161 133 125 114 105 99 95 91 94 97 101 118 129 132 135 152 140 123 122 127 128 135 129 124 119 113 108 109 117 119 112 107 125 144
48 40 37 26 22 9 9 7 352 348 340 334 327 324 340 331 304 290 288 314 333 331 330 331 340 327 333 334 322 316 297 170 175 170 165 107 80 73 69 74 71 54 4 8 311 315 105 112 107 114 95 83 41 36 98 108 118 120 129 123 120 123 120 125 163 160 152 150 162 129 136 135 142 139 133 130 134 132 131 126 135 134 126 127 150 163 169
41 33 23 13 7 1 354 345 349 338 336 331 325 322 314 303 300 321 337 335 333 330 328 325 317 317 310 309 297 292 285 157 164 144 105 85 85 100 117 117 134 154 164 241 212 202 174 114 115 100 92 73 49 42 80 109 111 123 129 130 131 133 131 106 121 130 123 113 102 127 127 128 131 126 133 149 148 147 145 151 148 145 145 147 149 165 150
67 73 34 19 12 357 327 330 330 325 317 313 305 303 302 311 331 326 320 320 323 322 312 305 304 304 304 300 302 281 217 100 108 127 131 116 89 76 63 49 39 66 62 47 13 349 343 7 92 118 114 115 106 98 120 119 114 109 110 115 129 137 139 149 141 131 121 108 111 113 121 122 108 107 110 126 137 148 161 164 156 147 140 141 147 157 167
50 48 29 14 358 346 335 326 323 324 321 320 320 315 316 314 310 304 302 300 292 287 284 285 279 279 283 286 279 236 168 151 134 110 80 77 76 79 79 71 45 64 81 108 135 158 209 95 51 45 56 7 188 146 119 116 125 128 119 121 134 144 143 153 153 132 123 127 126 128 150 135 131 141 144 136 152 175 187 181 159 142 143 145 156 158 172
47 76 238 252 234 266 290 289 292 298 301 298 302 310 307 301 296 289 289 290 295 288 281 280 277 282 283 277 256 196 193 167 159 155 145 127 124 133 120 125 131 123 126 161 172 136 107 73 79 69 46 38 56 54 52 74 99 108 125 119 112 105 102 111 96 103 106 114 120 143 137 142 149 151 156 165 168 178 203 233 150 138 139 146 150 158 172
338 313 282 265 257 277 294 284 276 291 304 308 301 299 303 303 305 315 317 307 293 289 290 290 296 294 295 292 278 218 197 167 160 156 146 136 142 126 121 133 139 160 162 160 143 117 103 96 88 71 64 73 67 47 54 72 82 76 71 85 109 108 111 101 102 99 115 125 157 171 161 142 152 175 179 183 196 207 208 154 125 135 146 149 153 167 174
353 346 348 347 338 329 322 315 319 311 306 298 295 292 297 328 341 334 326 330 331 333 339 343 341 330 314 295 266 214 189 159 146 141 131 117 117 113 114 129 153 165 139 134 117 101 100 92 87 70 79 84 90 97 75 73 78 86 96 71 110 127 119 121 124 131 138 152 163 149 145 165 178 203 198 175 187 203 136 109 119 147 146 151 163 174 179
332 334 332 325 320 318 325 320 320 313 310 309 322 335 342 331 326 327 323 320 326 354 351 345 339 339 342 323 298 76 92 105 116 119 114 108 102 95 93 84 77 94 112 126 94 87 91 96 88 79 70 71 85 81 72 68 49 28 55 112 99 118 128 145 154 162 169 174 169 176 170 183 200 193 185 192 140 113 124 123 113 117 149 165 168 179 179
330 329 331 333 326 328 322 320 323 334 340 332 324 321 334 328 317 317 318 319 354 350 332 321 321 315 326 35 360 327 31 116 119 118 121 118 116 111 90 52 55 77 68 75 65 63 77 77 82 75 60 56 78 94 93 151 180 179 258 182 181 161 161 178 172 172 190 189 170 177 189 192 184 171 172 152 132 136 136 129 121 137 149 158 157 168 167
339 335 333 333 326 324 321 325 334 336 322 316 317 321 323 320 322 317 318 319 312 311 315 341 328 338 10 18 74 264 309 358 97 112 117 115 105 96 100 117 88 67 64 102 116 121 114 94 86 84 97 93 77 88 102 261 244 250 281 235 193 184 180 186 193 189 180 180 167 161 179 193 194 177 160 163 156 154 151 141 153 159 160 148 137 148 153
331 326 316 312 316 325 327 322 318 311 311 307 309 322 331 330 325 324 317 306 318 344 352 358 29 53 28 38 22 350 45 1 42 93 100 101 110 109 113 153 153 145 149 126 120 102 73 73 84 106 103 98 91 74 62 35 38 12 354 1 346 267 175 139 143 155 165 176 167 173 173 178 190 197 186 171 173 179 182 161 156 164 165 120 125 141 166
325 319 326 331 335 333 329 322 315 315 310 320 352 353 343 334 327 331 320 312 319 293 109 71 26 23 58 31 53 45 24 357 358 9 30 14 74 131 144 142 132 139 131 115 112 101 106 83 83 87 113 103 106 88 57 36 20 25 0 352 344 323 269 204 200 210 196 182 187 184 185 196 200 197 189 192 200 198 186 164 163 154 127 121 119 115 103
346 351 342 335 333 338 329 323 327 337 339 340 326 315 329 327 310 302 297 318 322 344 5 337 68 66 60 89 106 127 149 149 189 212 156 124 61 50 90 114 119 140 135 123 125 117 108 112 126 109 103 100 92 79 65 59 39 359 345 343 343 9 2 359 16 11 317 229 209 209 201 208 195 194 193 193 193 200 182 159 140 139 139 131 126 100 67
350 341 352 348 342 336 334 336 333 322 306 302 314 322 355 329 314 299 304 329 343 12 18 357 104 141 144 165 127 148 207 203 191 176 142 113 116 110 112 116 121 109 126 116 86 105 119 132 129 121 118 114 113 107 97 101 62 359 359 9 18 12 12 14 12 6 360 328 265 176 145 158 146 113 122 133 139 148 144 135 140 140 138 142 138 143 123
347 349 346 351 348 331 332 323 319 300 295 290 295 319 344 307 299 314 330 344 331 332 333 348 12 6 295 212 170 169 156 89 64 37 3 168 161 160 168 153 132 140 131 108 102 105 103 114 112 121 130 127 95 79 47 62 254 130 70 43 27 27 12 3 5 6 3 356 315 258 165 126 118 110 100 89 65 75 112 129 133 127 127 134 154 135 118
330 332 337 331 322 321 310 315 312 310 308 341 336 316 316 320 318 321 331 348 357 349 336 356 3 321 319 13 88 126 129 123 118 101 89 78 109 128 145 146 148 160 126 118 130 130 138 143 154 153 138 124 112 70 34 340 271 146 109 99 68 39 28 5 4 16 7 355 339 342 111 119 118 121 122 110 93 87 81 76 89 116 117 114 119 110 100
313 331 327 322 316 310 303 291 303 339 360 350 344 346 280 295 306 325 303 316 330 353 349 350 325 345 4 11 357 10 97 142 147 140 117 113 126 128 134 139 173 193 152 141 142 153 155 157 162 167 153 131 117 131 176 290 291 164 160 136 145 195 202 74 56 17 352 353 346 300 270 98 99 95 104 116 115 117 133 145 152 136 115 114 115 114 117
272 274 280 317 308 304 309 329 0 7 343 339 347 343 334 345 329 320 325 324 333 353 340 345 342 337 357 340 353 8 350 45 114 179 147 125 132 142 155 149 153 128 113 122 129 138 159 167 181 176 157 136 130 165 163 20 356 313 208 181 201 181 139 124 140 114 51 354 345 318 355 68 68 81 80 82 88 100 144 138 117 108 116 123 123 125 131
258 261 256 218 249 278 280 303 323 302 293 305 308 308 305 318 312 302 278 259 259 252 235 249 256 277 309 319 8 1 15 313 112 91 100 132 149 159 143 134 141 143 143 140 150 159 178 183 187 177 165 164 192 197 194 194 181 330 290 273 250 157 129 162 186 163 140 215 354 343 22 62 67 73 88 90 85 75 67 84 111 130 128 118 110 117 130
237 233 242 228 223 230 252 228 231 249 221 276 285 273 282 286 291 275 278 318 346 302 301 331 328 299 270 272 258 206 209 259 188 166 137 151 169 166 156 155 159 162 159 154 152 163 167 182 186 189 189 195 209 202 181 174 251 267 240 191 138 156 170 202 198 180 167 120 65 11 32 75 74 27 62 52 15 359 125 104 104 120 131 151 144 141 148
231 210 237 225 218 219 230 260 257 256 261 247 246 249 246 276 304 324 323 305 283 287 1 344 299 276 234 264 297 285 209 203 289 127 164 180 176 169 173 170 169 182 168 155 163 168 178 182 187 192 192 190 195 204 231 255 263 290 328 351 15 111 100 94 113 95 88 94 98 66 5 339 254 208 271 229 190 238 215 155 133 141 144 143 134 130 128